N311TY KBUR-KSNA

Flight info

Callsign N311TY
Flight time 0h 18m
Altitude 9000
Route TWINE V518 KIMMO V459 SLI
Aircraft C208/L-SDFGR/C

Departure

Time 2026-05-06 00:24
Airport Hollywood Burbank/Bob Hope Airport (KBUR)

Arrival

Time 2026-05-06 00:42
Airport John Wayne Orange County International Airport (KSNA)
Time Latitude Longitude Altitude Speed Heading
2026-05-05 23:59 34.20006 -118.36514 735 ft 0 kts 180°
2026-05-06 00:17 34.20004 -118.36513 735 ft 1 kts 169°
2026-05-06 00:17 34.20000 -118.36485 734 ft 7 kts 86°
2026-05-06 00:17 34.19980 -118.36457 733 ft 0 kts 138°
2026-05-06 00:19 34.19973 -118.36452 733 ft 5 kts 163°
2026-05-06 00:19 34.19926 -118.36451 733 ft 8 kts 155°
2026-05-06 00:19 34.19896 -118.36348 730 ft 21 kts 94°
2026-05-06 00:19 34.19890 -118.36161 728 ft 23 kts 91°
2026-05-06 00:20 34.19890 -118.35975 727 ft 22 kts 89°
2026-05-06 00:20 34.19888 -118.35824 726 ft 10 kts 82°
2026-05-06 00:20 34.19955 -118.35808 729 ft 13 kts 347°
2026-05-06 00:20 34.20061 -118.35837 730 ft 18 kts 347°
2026-05-06 00:21 34.20196 -118.35875 729 ft 21 kts 347°
2026-05-06 00:21 34.20339 -118.35914 731 ft 21 kts 347°
2026-05-06 00:21 34.20488 -118.35955 733 ft 23 kts 347°
2026-05-06 00:21 34.20638 -118.35996 738 ft 22 kts 348°
2026-05-06 00:22 34.20785 -118.36037 740 ft 23 kts 346°
2026-05-06 00:22 34.20940 -118.36082 744 ft 23 kts 348°
2026-05-06 00:22 34.21091 -118.36122 748 ft 19 kts 347°
2026-05-06 00:22 34.21164 -118.36135 747 ft 10 kts 353°
2026-05-06 00:23 34.21212 -118.36075 743 ft 8 kts 73°
2026-05-06 00:23 34.21152 -118.36024 746 ft 14 kts 169°
2026-05-06 00:23 34.20742 -118.35944 754 ft 100 kts 176°
2026-05-06 00:23 34.19992 -118.35765 1203 ft 118 kts 171°
2026-05-06 00:24 34.19267 -118.35863 2035 ft 97 kts 201°
2026-05-06 00:24 34.18613 -118.35985 2747 ft 95 kts 200°
2026-05-06 00:24 34.17953 -118.36139 3359 ft 99 kts 193°
2026-05-06 00:24 34.17259 -118.36261 4023 ft 100 kts 193°
2026-05-06 00:25 34.16561 -118.36365 4660 ft 103 kts 187°
2026-05-06 00:25 34.15973 -118.35883 5277 ft 111 kts 131°
2026-05-06 00:25 34.15698 -118.35038 5903 ft 113 kts 82°
2026-05-06 00:25 34.15754 -118.34089 6505 ft 115 kts 84°
2026-05-06 00:26 34.15769 -118.33118 7036 ft 115 kts 88°
2026-05-06 00:26 34.15768 -118.32479 7381 ft 116 kts 89°
2026-05-06 00:26 34.15749 -118.31504 7905 ft 117 kts 87°
2026-05-06 00:26 34.15725 -118.30522 8423 ft 117 kts 85°
2026-05-06 00:27 34.15700 -118.29542 8948 ft 118 kts 85°
2026-05-06 00:27 34.15673 -118.28402 9005 ft 153 kts 90°
2026-05-06 00:27 34.15287 -118.27100 9006 ft 180 kts 123°
2026-05-06 00:27 34.14286 -118.26129 9011 ft 192 kts 153°
2026-05-06 00:28 34.13067 -118.25447 9008 ft 194 kts 156°
2026-05-06 00:28 34.11834 -118.24764 9003 ft 196 kts 154°
2026-05-06 00:28 34.10601 -118.24054 9005 ft 196 kts 154°
2026-05-06 00:28 34.09375 -118.23342 9006 ft 195 kts 154°
2026-05-06 00:29 34.08144 -118.22631 9009 ft 196 kts 154°
2026-05-06 00:29 34.06916 -118.21919 9004 ft 196 kts 154°
2026-05-06 00:29 34.05685 -118.21209 9012 ft 195 kts 154°
2026-05-06 00:29 34.04456 -118.20499 9012 ft 196 kts 154°
2026-05-06 00:30 34.03225 -118.19788 9012 ft 197 kts 153°
2026-05-06 00:30 34.01980 -118.19072 9014 ft 200 kts 153°
2026-05-06 00:30 34.00724 -118.18344 9014 ft 200 kts 154°
2026-05-06 00:30 33.99473 -118.17623 9013 ft 199 kts 154°
2026-05-06 00:31 33.98224 -118.16901 9015 ft 200 kts 154°
2026-05-06 00:31 33.96972 -118.16185 9005 ft 199 kts 155°
2026-05-06 00:31 33.95732 -118.15470 8996 ft 196 kts 154°
2026-05-06 00:31 33.94499 -118.14757 8996 ft 197 kts 153°
2026-05-06 00:32 33.93267 -118.14045 8993 ft 197 kts 153°
2026-05-06 00:32 33.92028 -118.13332 8995 ft 198 kts 153°
2026-05-06 00:32 33.90784 -118.12616 8996 ft 198 kts 153°
2026-05-06 00:32 33.89838 -118.11479 8973 ft 193 kts 114°
2026-05-06 00:33 33.89436 -118.09966 8975 ft 188 kts 101°
2026-05-06 00:33 33.89099 -118.08457 8776 ft 186 kts 101°
2026-05-06 00:33 33.88791 -118.07030 8641 ft 172 kts 102°
2026-05-06 00:33 33.88504 -118.05618 8316 ft 173 kts 97°
2026-05-06 00:34 33.88241 -118.04183 7965 ft 173 kts 102°
2026-05-06 00:34 33.87947 -118.02770 7374 ft 183 kts 101°
2026-05-06 00:34 33.87662 -118.01254 6772 ft 184 kts 102°
2026-05-06 00:34 33.87397 -117.99757 6133 ft 183 kts 101°
2026-05-06 00:35 33.87138 -117.98234 5496 ft 187 kts 102°
2026-05-06 00:35 33.86903 -117.96717 5032 ft 182 kts 101°
2026-05-06 00:35 33.86679 -117.95215 4497 ft 182 kts 101°
2026-05-06 00:35 33.86465 -117.93708 3975 ft 180 kts 102°
2026-05-06 00:36 33.86276 -117.92235 3490 ft 180 kts 101°
2026-05-06 00:36 33.86095 -117.90745 3022 ft 178 kts 101°
2026-05-06 00:36 33.85912 -117.89353 2989 ft 159 kts 116°
2026-05-06 00:36 33.85256 -117.88436 2998 ft 138 kts 149°
2026-05-06 00:37 33.84501 -117.87767 3001 ft 142 kts 157°
2026-05-06 00:37 33.83516 -117.87328 2998 ft 157 kts 169°
2026-05-06 00:37 33.82475 -117.86750 2976 ft 173 kts 151°
2026-05-06 00:37 33.81509 -117.85884 2987 ft 177 kts 148°
2026-05-06 00:38 33.80505 -117.84971 2994 ft 180 kts 148°
2026-05-06 00:38 33.79501 -117.84126 2984 ft 169 kts 156°
2026-05-06 00:38 33.78480 -117.83494 2878 ft 164 kts 157°
2026-05-06 00:38 33.77454 -117.82925 2457 ft 161 kts 161°
2026-05-06 00:39 33.76431 -117.82358 2009 ft 157 kts 161°
2026-05-06 00:39 33.75486 -117.82042 1979 ft 129 kts 188°
2026-05-06 00:39 33.74678 -117.82416 1707 ft 125 kts 207°
2026-05-06 00:39 33.73836 -117.82914 1325 ft 137 kts 207°
2026-05-06 00:40 33.73024 -117.83404 1177 ft 125 kts 208°
2026-05-06 00:40 33.72261 -117.83903 941 ft 126 kts 212°
2026-05-06 00:40 33.71489 -117.84378 758 ft 118 kts 213°
2026-05-06 00:40 33.70826 -117.84795 696 ft 96 kts 210°
2026-05-06 00:41 33.70259 -117.85171 624 ft 93 kts 212°
2026-05-06 00:41 33.69720 -117.85518 458 ft 82 kts 210°
2026-05-06 00:41 33.69226 -117.85818 296 ft 82 kts 210°
2026-05-06 00:41 33.68722 -117.86143 217 ft 82 kts 210°
2026-05-06 00:42 33.68227 -117.86465 111 ft 77 kts 211°
2026-05-06 00:42 33.67797 -117.86742 57 ft 60 kts 212°
2026-05-06 00:42 33.67479 -117.86948 56 ft 40 kts 211°
2026-05-06 00:42 33.67395 -117.87034 58 ft 10 kts 317°
2026-05-06 00:43 33.67426 -117.87092 59 ft 0 kts 291°
2026-05-06 00:43 33.67429 -117.87106 59 ft 1 kts 277°
2026-05-06 00:43 33.67417 -117.87131 55 ft 7 kts 206°
2026-05-06 00:43 33.67363 -117.87165 58 ft 9 kts 208°
2026-05-06 00:44 33.67369 -117.87232 54 ft 12 kts 298°
2026-05-06 00:44 33.67372 -117.87240 55 ft 0 kts 298°